TimeAST,TemperatureF,Dew PointF,Humidity,Sea Level PressureIn,VisibilityMPH,Wind Direction,Wind SpeedMPH,Gust SpeedMPH,PrecipitationIn,Events,Conditions,WindDirDegrees,DateUTC
12:00 AM,-9999,-9999,N/A,30.06,-9999.0,ENE,13.8,-,N/A,,Unknown,60,2013-01-07 04:00:00
2:00 AM,,32,,,,ENE,15.0,,,,Clear,70,2013-01-07 06:00:00
2:00 AM,-9999,-9999,N/A,30.06,-9999.0,ENE,15.0,-,N/A,,Unknown,70,2013-01-07 06:00:00
3:00 AM,-9999,-9999,N/A,30.04,-9999.0,ENE,18.4,-,N/A,,Unknown,60,2013-01-07 07:00:00
4:00 AM,-9999,-9999,N/A,30.04,-9999.0,ENE,18.4,-,N/A,,Unknown,60,2013-01-07 08:00:00
5:00 AM,,32,,,,ENE,16.1,,,,Clear,60,2013-01-07 09:00:00
5:00 AM,-9999,-9999,N/A,30.04,-9999.0,ENE,16.1,-,N/A,,Unknown,60,2013-01-07 09:00:00
6:00 AM,-9999,-9999,N/A,30.06,-9999.0,ENE,17.3,-,N/A,,Unknown,60,2013-01-07 10:00:00
7:00 AM,77.0,71.6,83,30.06,6.2,ENE,16.1,-,N/A,,Scattered Clouds,60,2013-01-07 11:00:00
8:00 AM,,,,,12,ENE,15.0,,,,Scattered Clouds,70,2013-01-07 12:00:00
8:00 AM,78.8,73.4,83,30.09,6.2,ENE,16.1,28.8,N/A,,Partly Cloudy,60,2013-01-07 12:00:00
9:00 AM,80.6,71.6,74,30.12,6.2,NE,18.4,-,N/A,,Partly Cloudy,50,2013-01-07 13:00:00
10:00 AM,84.2,71.6,66,30.12,6.2,ENE,18.4,-,N/A,,Partly Cloudy,60,2013-01-07 14:00:00
11:00 AM,32,,,,12,ENE,20.7,,,,Scattered Clouds,70,2013-01-07 15:00:00
11:00 AM,86.0,73.4,66,30.12,6.2,ENE,19.6,-,N/A,,Partly Cloudy,60,2013-01-07 15:00:00
12:00 PM,84.2,73.4,70,30.09,6.2,NE,19.6,-,N/A,,Scattered Clouds,50,2013-01-07 16:00:00
1:00 PM,86.0,75.2,70,30.06,6.2,NE,18.4,-,N/A,,Scattered Clouds,50,2013-01-07 17:00:00
2:00 PM,,,,,12,East,16.1,,,,Partly Cloudy,80,2013-01-07 18:00:00
2:00 PM,82.4,75.2,79,30.04,6.2,ENE,16.1,-,N/A,,Scattered Clouds,60,2013-01-07 18:00:00
3:00 PM,80.6,73.4,79,30.04,6.2,ENE,17.3,-,N/A,,Mostly Cloudy,60,2013-01-07 19:00:00
4:00 PM,80.6,69.8,70,30.04,6.2,ENE,16.1,-,N/A,,Mostly Cloudy,60,2013-01-07 20:00:00
5:00 PM,,,,,12,East,15.0,,,,Scattered Clouds,80,2013-01-07 21:00:00
5:00 PM,78.8,69.8,74,30.04,6.2,ENE,15.0,-,N/A,,Partly Cloudy,70,2013-01-07 21:00:00
6:00 PM,77.0,71.6,83,30.06,6.2,ENE,13.8,-,N/A,,Scattered Clouds,70,2013-01-07 22:00:00
7:00 PM,-9999,-9999,N/A,30.06,-9999.0,ENE,13.8,-,N/A,,Unknown,70,2013-01-07 23:00:00
8:00 PM,,32,,,6,ENE,16.1,,,,Clear,60,2013-01-08 00:00:00
8:00 PM,-9999,-9999,N/A,30.09,-9999.0,ENE,16.1,-,N/A,,Unknown,60,2013-01-08 00:00:00
9:00 PM,-9999,-9999,N/A,30.09,-9999.0,ENE,15.0,-,N/A,,Unknown,60,2013-01-08 01:00:00
11:00 PM,,32,,,,ENE,13.8,,,,Clear,60,2013-01-08 03:00:00
11:00 PM,-9999,-9999,N/A,30.09,-9999.0,ENE,13.8,-,N/A,,Scattered Clouds,60,2013-01-08 03:00:00